Location: Croissy-Beaubourg
(48.8283°N, 2.6696°E)
Time: 02:07:55
(UTC+00:00)

USA 215 - Pass Details

Date: 26 May 2022
Orbit: 1099 x 1108 km, 123.0° (Epoch: 10 June)

Event Time Altitude Azimuth Distance (km) Brightness Sun altitude
Rises 21:52:16 0° 58° (ENE) 3,928 6.2 -15.4°
Reaches altitude 10° 21:55:06 10° 68° (ENE) 2,968 5.5 -15.7°
Maximum altitude 22:00:48 31° 129° (SE) 1,827 3.9 -16.1°
Enters shadow 22:03:43 22° 170° (S) 2,183 4.2 -16.3°
